Date,TemperatureHighF,TemperatureAvgF,TemperatureLowF,DewpointHighF,DewpointAvgF,DewpointLowF,HumidityHigh,HumidityAvg,HumidityLow,PressureMaxIn,PressureMinIn,WindSpeedMaxMPH,WindSpeedAvgMPH,GustSpeedMaxMPH,PrecipitationSumIn
2013-2-1,12.3,9.4,6.3,8.1,5.8,3.8,92,85,80,30.27,30.17,7,0,7,0.00
2013-2-2,26.1,18.5,7.2,24.4,16.2,5.4,95,91,83,30.17,29.89,14,0,14,0.00
2013-2-3,22.2,17.7,14.0,20.4,14.9,11.6,93,89,84,29.97,29.86,12,0,12,0.00
2013-2-4,28.2,22.9,18.7,24.8,20.6,15.8,95,91,86,29.97,29.78,3,0,3,0.00
2013-2-5,31.1,23.5,9.7,28.5,21.3,7.5,97,92,78,29.93,29.74,7,0,7,0.06
2013-2-6,33.4,28.4,19.4,26.8,23.2,17.3,95,81,64,30.18,29.93,3,0,5,0.08
2013-2-7,41.9,33.1,26.8,33.2,28.4,23.5,97,83,67,30.11,29.72,7,0,7,0.26
2013-2-8,33.6,30.7,22.8,33.0,27.1,20.5,98,87,73,30.29,29.73,12,1,12,0.00
2013-2-9,35.4,25.7,14.3,26.0,21.1,12.5,96,83,66,30.35,30.10,8,0,8,0.01
2013-2-10,45.7,36.6,27.6,45.2,32.7,23.6,98,85,75,30.11,29.50,7,0,7,0.05
2013-2-11,47.4,36.8,31.0,45.7,30.3,24.2,98,77,70,29.89,29.46,23,4,23,0.01
2013-2-12,32.9,30.0,28.4,25.6,24.6,23.0,84,80,72,30.01,29.87,13,1,13,0.00
2013-2-13,44.4,32.1,21.7,32.9,26.7,19.4,95,81,59,29.87,29.63,7,0,7,0.00
2013-2-14,40.9,36.0,29.7,36.0,31.2,24.8,95,83,67,29.84,29.60,18,1,18,0.00
2013-2-15,33.9,27.9,21.7,27.0,22.6,18.1,90,81,63,30.09,29.84,12,1,12,0.01
2013-2-16,24.1,19.3,10.3,21.4,15.3,7.6,93,84,69,30.06,29.99,13,1,13,0.00
2013-2-17,28.6,20.0,11.0,17.3,13.5,8.6,94,77,54,30.15,30.04,7,0,7,0.02
2013-2-18,51.8,37.9,23.6,44.6,30.1,15.4,94,74,62,30.06,29.37,11,1,11,0.12
2013-2-19,44.9,23.2,16.1,43.3,20.0,12.7,95,88,76,29.99,29.33,16,2,16,0.05
2013-2-20,24.3,20.0,15.8,20.3,17.1,13.6,93,88,81,30.24,29.99,15,1,15,0.00
2013-2-21,27.3,24.0,20.6,21.9,19.5,16.6,90,83,76,30.30,30.01,13,1,13,0.01
2013-2-22,33.7,27.8,21.7,33.2,26.4,17.5,98,94,81,30.02,29.76,15,2,15,0.01
2013-2-23,30.9,28.2,26.2,26.0,22.8,20.3,88,80,68,29.88,29.82,11,1,11,0.00
2013-2-24,37.7,28.9,22.6,27.5,23.8,20.1,95,82,62,30.08,29.86,9,0,9,0.07
2013-2-25,41.7,30.7,18.8,29.6,24.7,17.4,95,80,57,30.14,29.94,6,0,6,0.06
2013-2-26,34.8,32.9,30.6,32.9,29.2,25.0,97,87,71,29.95,29.37,16,2,16,0.04
2013-2-27,36.1,33.7,32.8,35.1,33.0,32.3,99,98,95,29.52,29.37,4,0,4,0.31
2013-2-28,39.2,34.5,31.7,33.6,32.0,29.1,99,91,79,29.90,29.51,9,1,9,0.09